Regional Weather Roundup
Issued by NWS Albany, NY

Home | Current Version | Previous Version | Text Only | Print | Product List | Glossary On
Versions: 1 2 3 4 5 6 7 8 9 10 11 12 13 14 15 16 17 18 19 20 21 22 23 24 25 26 27 28 29 30 31 32 33 34 35 36 37 38 39 40 41 42 43 44 45 46 47 48 49 50
000
ASUS41 KALY 271710
RWRALY

NEW YORK STATE HOURLY WEATHER ROUNDUP
NATIONAL WEATHER SERVICE ALBANY NY
100 PM EDT SAT MAY 27 2017

NOTE: "FAIR" INDICATES FEW OR NO CLOUDS BELOW 12,000 FEET WITH NO
SIGNIFICANT WEATHER AND/OR NO OBSTRUCTIONS TO VISIBILITY.

NYZ032-033-038>043-046>054-057>066-NYZ062>081-082-084-271800-
EAST


CITY           SKY/WX    TMP DP  RH WIND       PRES   REMARKS
ALBANY         PTSUNNY   66  50  56 N8        29.90S
GLENS FALLS    NOT AVBL
POUGHKEEPSIE   PTSUNNY   68  54  60 CALM      29.86F
NEWBURGH       PTSUNNY   68  57  68 CALM      29.88F
MONTGOMERY     CLOUDY    69  54  58 SW6       29.86S
WHITE PLAINS   PTSUNNY   69  52  54 W6        29.86S
ISLIP          PTSUNNY   67  56  67 S12       29.87S
NEW YORK CITY  PTSUNNY   72  53  51 VRB3      29.86S
CENTRAL PARK   CLOUDY    69  55  60 W3        29.89F
$$

NYZ005>009-017-018-044>046-055-056-271800-
CENTRAL


CITY           SKY/WX    TMP DP  RH WIND       PRES   REMARKS
FULTON         LGT RAIN  61  57  87 W3        29.91S
SYRACUSE       PTSUNNY   63  58  83 VRB3      29.90F
ROME           CLOUDY    66  51  58 W5        29.90S
ELMIRA         CLOUDY    62  53  72 NE8       29.91R
BINGHAMTON     CLOUDY    61  54  77 NW6       29.91S
MONTICELLO     CLOUDY    63  54  72 W8        29.91S
$$

NYZ026>034-041>043-087-271800-
NORTH


CITY           SKY/WX    TMP DP  RH WIND       PRES   REMARKS
WATERTOWN      SUNNY     68  53  58 E9        29.89F
FORT DRUM      NOT AVBL
OGDENSBURG     FAIR      71  50  47 CALM      29.89F
MASSENA        PTSUNNY   68  51  54 W7        29.90S
SARANAC LAKE   CLOUDY    58  49  72 CALM      29.90S
PLATTSBURGH    SUNNY     65  47  52 E7        29.89S
$$

NYZ001>004-010>016-019>021-085-271800-
WEST


CITY           SKY/WX    TMP DP  RH WIND       PRES   REMARKS
NIAGARA FALLS  CLOUDY    64  55  72 SW3       29.92R
BUFFALO        CLOUDY    64  53  67 NW3       29.92S
DUNKIRK        SUNNY     63  56  78 NW9       29.93R
JAMESTOWN      CLOUDY    61  48  63 CALM      29.93S
WELLSVILLE     CLOUDY    63  49  60 CALM      29.94S
ROCHESTER      CLOUDY    63  56  78 N7        29.92R
PENN YAN       CLOUDY    62  52  69 CALM      29.92S
$$

             KEY
       WCI = WIND CHILL INDEX
       VSB = VISIBILITY
       HX  = HEAT INDEX
$$



USA.gov is the U.S. government's official web portal to all federal, state and local government web resources and services.